BEIDOU-2 G6 (C02)

Last updated on Wed Aug 26 2026 00:04:16 GMT+0000 (Coordinated Universal Time)

1 38953U 12059A 26237.63313723 -.00000178 00000+0 00000+0 0 9998 2 38953 4.5915 72.7406 0007837 329.2991 243.8027 1.00274491 50605
UTC large
Height (km)
Speed (km/s)
/
Latitude / Longitude
Inclination (degrees)
Orbital Period (minutes)
Azimuth
Elevation
Range (km)
Doppler Factor

Next 0 passes for location: London (51.5072 / 0.1276)

No passes found over London.
BEIDOU-2 G6 (C02)